Location: Gniazdowice
(50.2124°N, 20.2673°E)
Time: 23:28:54
(UTC+00:00)

SL-4 R/B - Pass Details

Date: 23 May 2024
Orbit: 412 x 600 km, 51.6° (Epoch: 22 June)

Event Time Altitude Azimuth Distance (km) Brightness Sun altitude
Exits shadow 01:12:24 - 178° (S) 1,947 4.4 -11.1°
Reaches altitude 10° 01:12:39 10° 175° (S) 1,884 4.3 -11.1°
Maximum altitude 01:15:27 17° 135° (SE) 1,510 4.2 -10.9°
Drops below altitude 10° 01:18:19 10° 94° (E) 1,936 5.3 -10.6°
Sets 01:21:17 0° 75° (ENE) 2,855 6.6 -10.3°
